FW2343 Weather Reports


Display with metric or nautical units.
time (UTC)temp
F
wind
direction
speed
MPH
gust
MPH
rain 1hr
in
rain 24hr
in
rain mn
in
humidity
%
barometer
mb
20260903184208 84 302 1.0 8.0 0.00 0.00 0.00 35 1021.6
20260903183718 85 285 1.0 8.0 0.00 0.00 0.00 35 1021.5
20260903183211 85 281 2.0 8.0 0.00 0.00 0.00 35 1021.5
20260903182719 85 255 2.0 8.0 0.00 0.00 0.00 35 1021.5
20260903182218 85 254 2.0 6.0 0.00 0.00 0.00 35 1021.5
20260903181704 86 262 1.0 6.0 0.00 0.00 0.00 34 1021.5
20260903181219 86 275 0.0 6.0 0.00 0.00 0.00 34 1021.4
20260903180706 86 286 1.0 9.0 0.00 0.00 0.00 34 1021.4
20260903180215 87 313 0.0 9.0 0.00 0.00 0.00 34 1021.5
20260903175715 87 0 0.0 9.0 0.00 0.00 0.00 33 1021.6
20260903174712 88 268 1.0 11.0 0.00 0.00 0.00 32 1021.6
20260903174207 88 279 2.0 11.0 0.00 0.00 0.00 32 1021.6
20260903173718 89 289 4.0 9.0 0.00 0.00 0.00 31 1021.6
20260903173207 89 271 1.0 9.0 0.00 0.00 0.00 31 1021.5
20260903172707 89 268 2.0 9.0 0.00 0.00 0.00 31 1021.6
20260903172214 90 246 5.0 10.0 0.00 0.00 0.00 31 1021.6
20260903171214 89 257 1.0 12.0 0.00 0.00 0.00 32 1021.6
20260903170705 89 275 3.0 12.0 0.00 0.00 0.00 31 1021.6
20260903170214 89 260 6.0 13.0 0.00 0.00 0.00 31 1021.7
20260903165712 89 277 4.0 13.0 0.00 0.00 0.00 31 1021.7
20260903165206 89 258 3.0 15.0 0.00 0.00 0.00 31 1021.7
20260903164717 90 279 5.0 15.0 0.00 0.00 0.00 30 1021.6
20260903164214 90 278 4.0 15.0 0.00 0.00 0.00 30 1021.7
20260903163705 90 260 4.0 11.0 0.00 0.00 0.00 30 1021.7
20260903163209 90 264 4.0 10.0 0.00 0.00 0.00 30 1021.7
20260903162710 90 288 4.0 12.0 0.00 0.00 0.00 30 1021.7
20260903161711 90 289 4.0 13.0 0.00 0.00 0.00 30 1021.6
20260903161214 91 261 6.0 17.0 0.00 0.00 0.00 30 1021.7
20260903160705 91 260 6.0 17.0 0.00 0.00 0.00 30 1021.7
20260903160204 91 261 4.0 17.0 0.00 0.00 0.00 30 1021.7
20260903155706 91 284 5.0 16.0 0.00 0.00 0.00 30 1021.7
20260903155218 91 309 3.0 16.0 0.00 0.00 0.00 30 1021.7
20260903154718 91 277 5.0 16.0 0.00 0.00 0.00 30 1021.7
20260903154206 91 285 6.0 12.0 0.00 0.00 0.00 30 1021.7
20260903153715 90 320 4.0 13.0 0.00 0.00 0.00 30 1021.8
20260903153219 90 279 5.0 13.0 0.00 0.00 0.00 30 1021.8
20260903152715 90 278 5.0 15.0 0.00 0.00 0.00 29 1021.9
20260903152219 90 313 4.0 15.0 0.00 0.00 0.00 30 1021.8
20260903151717 89 330 1.0 15.0 0.00 0.00 0.00 30 1021.8
20260903151219 89 331 6.0 13.0 0.00 0.00 0.00 31 1021.8
20260903150713 89 347 7.0 13.0 0.00 0.00 0.00 32 1021.9
20260903145707 90 306 4.0 11.0 0.00 0.00 0.00 30 1021.9
20260903145213 90 357 1.0 11.0 0.00 0.00 0.00 30 1021.9
20260903144717 90 288 3.0 12.0 0.00 0.00 0.00 30 1021.9
20260903144207 90 277 1.0 12.0 0.00 0.00 0.00 30 1022.0
20260903143716 90 348 4.0 15.0 0.00 0.00 0.00 29 1022.0
20260903143216 89 310 5.0 16.0 0.00 0.00 0.00 30 1022.1
20260903142715 89 336 3.0 16.0 0.00 0.00 0.00 29 1022.1
20260903142207 89 341 5.0 16.0 0.00 0.00 0.00 29 1022.0
20260903141710 89 268 5.0 14.0 0.00 0.00 0.00 30 1022.1
20260903140220 88 246 3.0 14.0 0.00 0.00 0.00 30 1022.3
20260903135219 88 2 5.0 14.0 0.00 0.00 0.00 32 1022.4
20260903134209 88 260 7.0 16.0 0.00 0.00 0.00 31 1022.5
20260903133706 88 15 3.0 16.0 0.00 0.00 0.00 32 1022.5
20260903132706 87 334 4.0 15.0 0.00 0.00 0.00 34 1022.5
20260903132210 87 281 7.0 11.0 0.00 0.00 0.00 35 1022.7
20260903131718 88 355 4.0 13.0 0.00 0.00 0.00 34 1022.6
20260903131234 88 345 2.0 14.0 0.00 0.00 0.00 34 1022.7
20260903130716 87 330 4.0 14.0 0.00 0.00 0.00 36 1022.7
20260903125713 87 277 6.0 13.0 0.00 0.00 0.00 37 1022.7
20260903125210 87 275 3.0 12.0 0.00 0.00 0.00 37 1022.8
20260903124714 87 355 5.0 15.0 0.00 0.00 0.00 38 1022.8
20260903123713 86 42 3.0 15.0 0.00 0.00 0.00 39 1022.9
20260903123209 86 296 7.0 10.0 0.00 0.00 0.00 39 1022.8
20260903122213 85 307 2.0 11.0 0.00 0.00 0.00 41 1022.9
20260903121713 85 277 4.0 11.0 0.00 0.00 0.00 41 1023.0
20260903120717 85 309 4.0 13.0 0.00 0.00 0.00 41 1023.1
20260903120213 86 268 2.0 13.0 0.00 0.00 0.00 41 1023.1
20260903115714 85 277 4.0 11.0 0.00 0.00 0.00 41 1023.2
20260903115214 85 306 3.0 11.0 0.00 0.00 0.00 43 1023.1
20260903114705 85 264 5.0 11.0 0.00 0.00 0.00 43 1023.2
20260903114217 85 307 3.0 13.0 0.00 0.00 0.00 43 1023.2
20260903113711 84 302 3.0 13.0 0.00 0.00 0.00 42 1023.2
20260903113211 84 279 3.0 15.0 0.00 0.00 0.00 42 1023.3
20260903112706 84 309 5.0 15.0 0.00 0.00 0.00 42 1023.4
20260903112207 84 281 6.0 15.0 0.00 0.00 0.00 43 1023.4
20260903111711 84 272 4.0 11.0 0.00 0.00 0.00 44 1023.5
20260903110714 83 278 4.0 12.0 0.00 0.00 0.00 44 1023.6
20260903110207 83 291 3.0 12.0 0.00 0.00 0.00 45 1023.7
20260903105212 83 317 4.0 14.0 0.00 0.00 0.00 45 1023.9
20260903104713 83 319 5.0 14.0 0.00 0.00 0.00 45 1023.9
20260903104206 82 358 3.0 14.0 0.00 0.00 0.00 45 1024.0
20260903103709 83 279 5.0 15.0 0.00 0.00 0.00 45 1024.2
20260903103216 83 279 5.0 15.0 0.00 0.00 0.00 45 1024.1
20260903102707 82 286 5.0 15.0 0.00 0.00 0.00 45 1024.3
20260903102216 82 282 5.0 15.0 0.00 0.00 0.00 46 1024.3
20260903101717 82 295 5.0 15.0 0.00 0.00 0.00 46 1024.3
20260903101214 81 285 7.0 13.0 0.00 0.00 0.00 46 1024.4
20260903100713 81 275 5.0 13.0 0.00 0.00 0.00 47 1024.4
20260903100215 80 357 5.0 13.0 0.00 0.00 0.00 47 1024.4
20260903095205 81 274 4.0 15.0 0.00 0.00 0.00 47 1024.4
20260903093716 80 250 2.0 12.0 0.00 0.00 0.00 47 1024.4
20260903093212 80 270 4.0 10.0 0.00 0.00 0.00 48 1024.3
20260903092731 80 286 0.0 13.0 0.00 0.00 0.00 49 1024.6
20260903092218 79 261 2.0 13.0 0.00 0.00 0.00 52 1024.4
20260903091707 79 2 2.0 13.0 0.00 0.00 0.00 51 1024.4
20260903091206 78 275 5.0 12.0 0.00 0.00 0.00 52 1024.6
20260903090719 78 282 4.0 12.0 0.00 0.00 0.00 52 1024.6
20260903090210 78 268 3.0 12.0 0.00 0.00 0.00 53 1024.6
20260903085712 78 262 5.0 12.0 0.00 0.00 0.00 54 1024.4
20260903085205 77 329 3.0 12.0 0.00 0.00 0.00 53 1024.6
20260903084705 77 319 6.0 11.0 0.00 0.00 0.00 56 1024.4
20260903084213 77 296 4.0 10.0 0.00 0.00 0.00 54 1024.4
20260903083709 77 279 4.0 10.0 0.00 0.00 0.00 55 1024.4
20260903083216 77 295 4.0 10.0 0.00 0.00 0.00 56 1024.4
20260903082217 76 286 3.0 9.0 0.00 0.00 0.00 58 1024.4
20260903081715 75 333 3.0 9.0 0.00 0.00 0.00 59 1024.4
20260903081207 75 307 3.0 10.0 0.00 0.00 0.00 60 1024.4
20260903080707 74 333 4.0 10.0 0.00 0.00 0.00 61 1024.4
20260903080206 74 303 3.0 13.0 0.00 0.00 0.00 61 1024.4
20260903075715 74 262 4.0 15.0 0.00 0.00 0.00 61 1024.6
20260903075218 74 296 4.0 15.0 0.00 0.00 0.00 62 1024.7
20260903074715 73 279 6.0 15.0 0.00 0.00 0.00 63 1024.8
20260903074208 73 282 6.0 15.0 0.00 0.00 0.00 63 1024.8
20260903073216 72 286 5.0 15.0 0.00 0.00 0.00 65 1024.8
20260903072710 72 264 6.0 8.0 0.00 0.00 0.00 66 1024.8
20260903072217 72 319 1.0 2.0 0.00 0.00 0.00 66 1024.8
20260903071707 71 163 0.0 2.0 0.00 0.00 0.00 67 1024.9
20260903070709 69 0 0.0 0.0 0.00 0.00 0.00 68 1024.9
20260903070216 69 0 0.0 0.0 0.00 0.00 0.00 70 1024.8
20260903065710 68 0 0.0 1.0 0.00 0.00 0.00 70 1024.8
20260903064709 67 0 0.0 1.0 0.00 0.00 0.00 73 1024.8
20260903064213 66 165 0.0 0.0 0.00 0.00 0.00 74 1025.0
20260903063713 65 0 0.0 0.0 0.00 0.00 0.00 74 1024.8
20260903063206 65 0 0.0 0.0 0.00 0.00 0.00 75 1024.8
20260903062710 64 0 0.0 0.0 0.00 0.00 0.00 76 1024.8
20260903061714 63 0 0.0 0.0 0.00 0.00 0.00 77 1024.6
20260903061215 63 0 0.0 0.0 0.00 0.00 0.00 78 1024.4
20260903060709 62 0 0.0 0.0 0.00 0.00 0.00 78 1024.4
20260903060234 62 0 0.0 0.0 0.00 0.00 0.00 79 1024.3
20260903055719 62 0 0.0 0.0 0.00 0.00 0.00 79 1024.3
20260903055210 61 0 0.0 0.0 0.00 0.00 0.00 80 1024.1
20260903054706 61 0 0.0 0.0 0.00 0.00 0.00 79 1024.1
20260903054209 61 0 0.0 0.0 0.00 0.00 0.00 79 1024.0
20260903053705 61 0 0.0 0.0 0.00 0.00 0.00 79 1024.0
20260903053216 61 0 0.0 0.0 0.00 0.00 0.00 79 1024.0
20260903052706 61 0 0.0 0.0 0.00 0.00 0.00 79 1024.0
20260903052219 61 0 0.0 0.0 0.00 0.00 0.00 79 1023.9
20260903051204 62 0 0.0 0.0 0.00 0.00 0.00 78 1023.9
20260903050715 62 0 0.0 0.0 0.00 0.00 0.00 78 1023.8
20260903045709 62 0 0.0 0.0 0.00 0.00 0.00 78 1023.8
20260903045212 62 0 0.0 0.0 0.00 0.00 0.00 77 1023.8
20260903044712 62 0 0.0 0.0 0.00 0.00 0.00 77 1023.7
20260903044213 62 0 0.0 0.0 0.00 0.00 0.00 77 1023.7
20260903043711 62 0 0.0 0.0 0.00 0.00 0.00 77 1023.6
20260903043213 62 0 0.0 0.0 0.00 0.00 0.00 77 1023.6
20260903042717 62 0 0.0 0.0 0.00 0.00 0.00 77 1023.6
20260903042208 62 0 0.0 0.0 0.00 0.00 0.00 77 1023.6
20260903041711 62 0 0.0 0.0 0.00 0.00 0.00 77 1023.6
20260903041215 63 0 0.0 0.0 0.00 0.00 0.00 76 1023.7
20260903040718 63 0 0.0 0.0 0.00 0.00 0.00 76 1023.7
20260903035713 63 0 0.0 0.0 0.00 0.00 0.00 76 1023.6
20260903034210 63 0 0.0 0.0 0.00 0.00 0.00 76 1023.7
20260903033718 63 0 0.0 0.0 0.00 0.00 0.00 76 1023.6
20260903032207 64 0 0.0 0.0 0.00 0.00 0.00 75 1023.6
20260903031712 64 0 0.0 0.0 0.00 0.00 0.00 75 1023.6
20260903030717 64 0 0.0 0.0 0.00 0.00 0.00 74 1023.6
20260903030208 64 0 0.0 0.0 0.00 0.00 0.00 74 1023.5
20260903025219 64 0 0.0 0.0 0.00 0.00 0.00 74 1023.4
20260903024706 64 0 0.0 0.0 0.00 0.00 0.00 74 1023.4
20260903024207 65 0 0.0 0.0 0.00 0.00 0.00 73 1023.4
20260903023710 65 0 0.0 0.0 0.00 0.00 0.00 73 1023.4
20260903023209 65 0 0.0 0.0 0.00 0.00 0.00 73 1023.5
20260903022717 65 0 0.0 0.0 0.00 0.00 0.00 72 1023.4
20260903022215 65 0 0.0 0.0 0.00 0.00 0.00 72 1023.4
20260903020708 66 0 0.0 0.0 0.00 0.00 0.00 72 1023.4
20260903020216 66 0 0.0 0.0 0.00 0.00 0.00 72 1023.5
20260903015217 66 0 0.0 0.0 0.00 0.00 0.00 71 1023.4
20260903014715 66 0 0.0 0.0 0.00 0.00 0.00 71 1023.3
20260903014207 66 0 0.0 0.0 0.00 0.00 0.00 70 1023.4
20260903013714 67 0 0.0 0.0 0.00 0.00 0.00 70 1023.5
20260903013218 67 0 0.0 0.0 0.00 0.00 0.00 70 1023.5
20260903012730 67 0 0.0 0.0 0.00 0.00 0.00 70 1023.4
20260903012215 67 0 0.0 0.0 0.00 0.00 0.00 69 1023.4
20260903011711 67 0 0.0 0.0 0.00 0.00 0.00 69 1023.4
20260903011210 67 0 0.0 0.0 0.00 0.00 0.00 69 1023.4
20260903010714 67 0 0.0 0.0 0.00 0.00 0.00 68 1023.4
20260903010208 68 0 0.0 0.0 0.00 0.00 0.00 68 1023.4
20260903005218 68 0 0.0 0.0 0.00 0.00 0.00 67 1023.4
20260903004707 68 0 0.0 0.0 0.00 0.00 0.00 66 1023.5
20260903004211 68 0 0.0 0.0 0.00 0.00 0.00 66 1023.4
20260903003708 69 0 0.0 0.0 0.00 0.00 0.00 66 1023.4
20260903002718 69 0 0.0 0.0 0.00 0.00 0.00 66 1023.4
20260903002205 69 0 0.0 0.0 0.00 0.00 0.00 65 1023.4
20260903001715 69 0 0.0 0.0 0.00 0.00 0.00 65 1023.5
20260903001211 69 0 0.0 0.0 0.00 0.00 0.00 64 1023.4
20260903000706 70 0 0.0 0.0 0.00 0.00 0.00 64 1023.5
20260903000216 70 0 0.0 0.0 0.00 0.00 0.00 64 1023.6
20260902235217 70 0 0.0 0.0 0.00 0.00 0.00 63 1023.5
20260902234706 70 0 0.0 0.0 0.00 0.00 0.00 63 1023.5
20260902234210 71 0 0.0 0.0 0.00 0.00 0.00 62 1023.5
20260902233719 71 0 0.0 0.0 0.00 0.00 0.00 62 1023.5
20260902233207 71 0 0.0 0.0 0.00 0.00 0.00 61 1023.5
20260902232713 71 0 0.0 0.0 0.00 0.00 0.00 61 1023.4
20260902232207 71 0 0.0 0.0 0.00 0.00 0.00 61 1023.4
20260902231707 71 0 0.0 0.0 0.00 0.00 0.00 62 1023.4
20260902231218 72 0 0.0 0.0 0.00 0.00 0.00 61 1023.5
20260902230706 72 0 0.0 0.0 0.00 0.00 0.00 61 1023.5
20260902230218 72 0 0.0 0.0 0.00 0.00 0.00 60 1023.4
20260902225718 72 0 0.0 0.0 0.00 0.00 0.00 60 1023.4
20260902223716 73 0 0.0 0.0 0.00 0.00 0.00 59 1023.3
20260902223217 73 0 0.0 3.0 0.00 0.00 0.00 59 1023.2
20260902222707 73 0 0.0 3.0 0.00 0.00 0.00 58 1023.2
20260902221707 74 196 0.0 0.0 0.00 0.00 0.00 57 1023.1
20260902221209 74 0 0.0 0.0 0.00 0.00 0.00 57 1023.1
20260902220713 74 0 0.0 0.0 0.00 0.00 0.00 57 1023.1
20260902220213 74 0 0.0 0.0 0.00 0.00 0.00 57 1023.1
20260902215713 74 0 0.0 0.0 0.00 0.00 0.00 56 1023.0
20260902215205 75 0 0.0 0.0 0.00 0.00 0.00 56 1023.0
20260902213705 75 0 0.0 0.0 0.00 0.00 0.00 55 1022.9
20260902213209 75 0 0.0 0.0 0.00 0.00 0.00 55 1022.9
20260902212729 75 0 0.0 0.0 0.00 0.00 0.00 54 1022.8
20260902212212 76 0 0.0 0.0 0.00 0.00 0.00 54 1022.8
20260902211706 76 0 0.0 1.0 0.00 0.00 0.00 54 1022.8
20260902211208 76 0 0.0 3.0 0.00 0.00 0.00 53 1022.8
20260902210711 77 0 0.0 7.0 0.00 0.00 0.00 51 1022.7
20260902210214 78 282 0.0 8.0 0.00 0.00 0.00 50 1022.8
20260902205718 79 284 0.0 8.0 0.00 0.00 0.00 49 1022.7
20260902205210 79 278 1.0 8.0 0.00 0.00 0.00 48 1022.6
20260902204718 80 254 2.0 9.0 0.00 0.00 0.00 47 1022.7
20260902204213 80 284 1.0 9.0 0.00 0.00 0.00 47 1022.7
20260902203715 80 233 2.0 9.0 0.00 0.00 0.00 47 1022.6
20260902203214 80 254 2.0 5.0 0.00 0.00 0.00 47 1022.6
20260902202707 80 243 2.0 0.0 0.00 0.00 0.00 47 1022.5
20260902202205 79 0 0.0 0.0 0.00 0.00 0.00 48 1022.4
20260902201706 79 0 0.0 0.0 0.00 0.00 0.00 48 1022.4
20260902201230 79 0 0.0 0.0 0.00 0.00 0.00 48 1022.3
20260902200708 79 0 0.0 0.0 0.00 0.00 0.00 48 1022.2
20260902200217 79 0 0.0 0.0 0.00 0.00 0.00 48 1022.2
20260902195711 79 0 0.0 0.0 0.00 0.00 0.00 48 1022.2
20260902195208 79 0 0.0 0.0 0.00 0.00 0.00 48 1022.2
20260902194717 80 0 0.0 0.0 0.00 0.00 0.00 47 1022.0
20260902194214 80 0 0.0 0.0 0.00 0.00 0.00 47 1022.0
20260902193717 81 0 0.0 0.0 0.00 0.00 0.00 46 1022.0
20260902193212 81 0 0.0 0.0 0.00 0.00 0.00 46 1022.0
20260902192706 82 0 0.0 0.0 0.00 0.00 0.00 45 1021.9
20260902192217 82 0 0.0 4.0 0.00 0.00 0.00 44 1021.8
20260902191705 82 0 0.0 4.0 0.00 0.00 0.00 43 1021.8
20260902191209 82 0 0.0 4.0 0.00 0.00 0.00 43 1021.7
20260902190715 83 258 0.0 4.0 0.00 0.00 0.00 43 1021.7
20260902190214 83 0 0.0 4.0 0.00 0.00 0.00 42 1021.6
20260902185713 83 246 0.0 6.0 0.00 0.00 0.00 42 1021.5
20260902185209 83 272 1.0 6.0 0.00 0.00 0.00 41 1021.4
20260902184705 84 267 0.0 6.0 0.00 0.00 0.00 41 1021.3